Date String (YYYY-MM-DD hh:mm:ss) UTC,Instrument flags,absolute air pressure of the measurement (hPa),sample flow rate (lpm),inlet stack bypass flow (lpm),air temperature of the measurement (°C),ambient temperature measured by the external sensor (°C),aerosol sample conditioner tube jacket temperature (°C),OPC LED temperature (°C),internal box temperature (°C),relative humidity of the measurement (%),span deviation,mass concentration of particles derived from Lorenz-Mie calculation of OPC scattering (μg/m³),mass concentration of particles derived from Lorenz-Mie calculation of OPC scattering (μg/m³),mass concentration of particles derived from Lorenz-Mie calculation of OPC scattering (μg/m³)
DateTimeUTC,F1_M11,P_M11,Q1_M11,Q2_M11,T1_M11,T2_M11,T3_M11,T4_M11,T5_M11,U1_M11,ZSPAN_M11,X2_M11,X0_M11,X1_M11
2023-10-03 23:00:00,SystemResetWarning,0827.2,5.00,000.00,028.8,027.4,000.0,037.2,030.4,11.9,0000.0,0001.55,0007.76,0001.11
2023-10-03 23:01:00,SystemResetWarning,0827.3,5.00,000.00,028.8,027.4,000.0,037.2,030.4,11.9,0000.0,0001.54,0006.24,0001.12
2023-10-03 23:02:00,SystemResetWarning,0827.4,5.00,000.00,028.8,027.5,000.0,037.2,030.4,11.9,0000.0,0001.55,0005.60,0001.12
2023-10-03 23:03:00,SystemResetWarning,0827.4,5.00,000.00,028.8,027.5,000.0,037.2,030.4,11.9,0000.0,0001.56,0005.60,0001.13
2023-10-03 23:04:00,SystemResetWarning,0827.4,4.99,000.00,028.8,027.5,000.0,037.2,030.4,12.0,0000.0,0001.57,0004.65,0001.14
2023-10-03 23:05:00,SystemResetWarning,0827.3,5.00,000.00,028.8,027.5,000.0,037.2,030.4,12.0,0000.0,0001.54,0003.08,0001.15
2023-10-03 23:06:00,SystemResetWarning,0827.4,5.00,000.00,028.9,027.5,000.0,037.3,030.4,11.9,0000.0,0001.54,0002.75,0001.13
2023-10-03 23:07:00,SystemResetWarning,0827.4,5.00,000.00,028.9,027.5,000.0,037.3,030.5,11.9,0000.0,0001.55,0002.98,0001.15
2023-10-03 23:08:00,SystemResetWarning,0827.4,5.00,000.00,028.9,027.5,000.0,037.3,030.5,12.0,0000.0,0001.52,0003.15,0001.15
2023-10-03 23:09:00,SystemResetWarning,0827.4,5.00,000.00,028.9,025.9,000.0,037.2,030.4,12.2,0000.0,0001.53,0003.56,0001.17
2023-10-03 23:10:00,SystemResetWarning,0827.4,5.00,000.00,028.8,024.7,000.0,037.1,030.2,12.3,0000.0,0001.52,0003.50,0001.19
2023-10-03 23:11:00,SystemResetWarning,0827.4,5.00,000.00,028.7,024.6,000.0,037.1,030.0,12.3,0000.0,0001.54,0003.63,0001.20
2023-10-03 23:12:00,SystemResetWarning,0827.4,5.01,000.00,028.5,024.9,000.0,037.1,029.9,12.3,0000.0,0001.55,0003.75,0001.19
2023-10-03 23:13:00,SystemResetWarning,0827.4,5.00,000.00,028.5,025.3,000.0,037.1,029.9,12.4,0000.0,0001.56,0003.78,0001.20
2023-10-03 23:14:00,SystemResetWarning,0827.4,5.00,000.00,028.5,025.6,000.0,037.0,029.9,12.5,0000.0,0001.56,0003.75,0001.20
2023-10-03 23:15:00,SystemResetWarning,0827.4,5.00,000.00,028.4,025.9,000.0,037.0,029.9,12.4,0000.0,0001.55,0003.69,0001.21
2023-10-03 23:16:00,SystemResetWarning,0827.4,5.01,000.00,028.4,026.2,000.0,037.0,030.0,12.4,0000.0,0001.59,0003.78,0001.21
2023-10-03 23:17:00,SystemResetWarning,0827.3,4.99,000.00,028.4,026.4,000.0,037.0,030.0,12.2,0000.0,0001.56,0003.56,0001.21
2023-10-03 23:18:00,SystemResetWarning,0827.3,5.00,000.00,028.4,026.6,000.0,037.0,030.0,11.8,0000.0,0001.52,0003.23,0001.21
2023-10-03 23:19:00,SystemResetWarning,0827.4,5.00,000.00,028.4,026.7,000.0,037.0,030.1,11.7,0000.0,0001.50,0003.06,0001.21
2023-10-03 23:20:00,SystemResetWarning,0827.4,5.00,000.00,028.4,026.8,000.0,036.9,030.1,11.7,0000.0,0001.49,0002.37,0001.20
2023-10-03 23:21:00,SystemResetWarning,0827.4,5.02,000.00,028.5,026.9,000.0,036.9,030.1,11.7,0000.0,0001.48,0002.35,0001.19
2023-10-03 23:22:00,SystemResetWarning,0827.4,5.00,000.00,028.5,027.0,000.0,036.9,030.1,11.8,0000.0,0001.45,0002.23,0001.19
2023-10-03 23:23:00,SystemResetWarning,0827.3,4.99,000.00,028.4,027.0,000.0,036.9,030.1,11.7,0000.0,0001.43,0002.12,0001.17
2023-10-03 23:24:00,SystemResetWarning,0827.3,5.00,000.00,028.4,027.1,000.0,036.9,030.1,11.8,0000.0,0001.42,0002.12,0001.15
2023-10-03 23:25:00,SystemResetWarning,0827.3,5.02,000.00,028.5,027.1,000.0,036.9,030.1,11.7,0000.0,0001.41,0002.09,0001.15
2023-10-03 23:26:00,SystemResetWarning,0827.3,5.00,000.00,028.5,027.1,000.0,036.9,030.1,11.7,0000.0,0001.41,0002.10,0001.16
2023-10-03 23:27:00,SystemResetWarning,0827.3,4.98,000.00,028.5,027.1,000.0,036.9,030.1,11.8,0000.0,0001.40,0002.10,0001.17
2023-10-03 23:28:00,SystemResetWarning,0827.3,5.00,000.00,028.5,027.1,000.0,036.9,030.1,11.9,0000.0,0001.44,0002.18,0001.18
2023-10-03 23:29:00,SystemResetWarning,0827.3,5.01,000.00,028.5,027.1,000.0,036.9,030.1,12.0,0000.0,0001.49,0002.28,0001.20
2023-10-03 23:30:00,SystemResetWarning,0827.3,5.00,000.00,028.5,027.1,000.0,036.9,030.1,12.0,0000.0,0001.53,0002.42,0001.21
2023-10-03 23:31:00,SystemResetWarning,0827.2,5.00,000.00,028.5,027.1,000.0,036.9,030.1,12.0,0000.0,0001.56,0002.53,0001.21
2023-10-03 23:32:00,SystemResetWarning,0827.3,5.00,000.00,028.5,027.1,000.0,036.9,030.1,12.0,0000.0,0001.60,0002.73,0001.21
2023-10-03 23:33:00,SystemResetWarning,0827.3,5.00,000.00,028.5,027.1,000.0,036.9,030.2,12.1,0000.0,0001.64,0002.86,0001.22
2023-10-03 23:34:00,SystemResetWarning,0827.2,4.99,000.00,028.5,027.2,000.0,036.9,030.2,12.1,0000.0,0001.65,0002.86,0001.23
2023-10-03 23:35:00,SystemResetWarning,0827.3,4.99,000.00,028.5,027.2,000.0,036.9,030.2,12.2,0000.0,0001.66,0002.84,0001.26
2023-10-03 23:36:00,SystemResetWarning,0827.3,5.01,000.00,028.5,027.2,000.0,036.9,030.2,12.1,0000.0,0001.71,0002.93,0001.28
2023-10-03 23:37:00,SystemResetWarning,0827.4,5.01,000.00,028.5,027.2,000.0,036.9,030.2,12.2,0000.0,0001.74,0003.04,0001.29
2023-10-03 23:38:00,SystemResetWarning,0827.4,5.00,000.00,028.5,027.2,000.0,036.9,030.2,12.3,0000.0,0001.78,0003.11,0001.30
2023-10-03 23:39:00,SystemResetWarning,0827.4,5.00,000.00,028.5,027.2,000.0,037.0,030.2,12.3,0000.0,0001.80,0003.66,0001.31
2023-10-03 23:40:00,SystemResetWarning,0827.4,4.99,000.00,028.6,027.2,000.0,037.0,030.2,12.3,0000.0,0001.78,0003.83,0001.30
2023-10-03 23:41:00,SystemResetWarning,0827.4,5.01,000.00,028.6,027.2,000.0,037.0,030.2,12.4,0000.0,0001.77,0003.79,0001.30
2023-10-03 23:42:00,SystemResetWarning,0827.4,5.01,000.00,028.6,027.2,000.0,037.0,030.2,12.4,0000.0,0001.74,0003.68,0001.31
2023-10-03 23:43:00,SystemResetWarning,0827.4,5.00,000.00,028.6,027.2,000.0,037.0,030.2,12.4,0000.0,0001.71,0004.04,0001.31
2023-10-03 23:44:00,SystemResetWarning,0827.4,5.00,000.00,028.6,027.2,000.0,037.0,030.2,12.3,0000.0,0001.65,0004.34,0001.30
2023-10-03 23:45:00,SystemResetWarning,0827.5,5.00,000.00,028.6,027.2,000.0,037.0,030.2,12.3,0000.0,0001.65,0004.34,0001.31
2023-10-03 23:46:00,SystemResetWarning,0827.4,5.00,000.00,028.6,027.2,000.0,037.0,030.2,12.3,0000.0,0001.65,0004.32,0001.31
2023-10-03 23:47:00,SystemResetWarning,0827.4,5.00,000.00,028.6,027.2,000.0,037.0,030.2,12.2,0000.0,0001.65,0004.32,0001.29
2023-10-03 23:48:00,SystemResetWarning,0827.4,5.00,000.00,028.6,027.2,000.0,037.0,030.2,12.2,0000.0,0001.62,0004.26,0001.27
2023-10-03 23:49:00,SystemResetWarning,0827.5,5.00,000.00,028.6,027.2,000.0,037.0,030.3,12.2,0000.0,0001.61,0004.23,0001.26
2023-10-03 23:50:00,SystemResetWarning,0827.4,5.00,000.00,028.6,027.2,000.0,037.0,030.3,12.1,0000.0,0001.59,0004.00,0001.24
2023-10-03 23:51:00,SystemResetWarning,0827.5,5.00,000.00,028.6,027.3,000.0,037.0,030.3,12.1,0000.0,0001.58,0003.50,0001.24
2023-10-03 23:52:00,SystemResetWarning,0827.4,5.00,000.00,028.6,027.3,000.0,037.0,030.3,12.2,0000.0,0001.58,0003.52,0001.23
2023-10-03 23:53:00,SystemResetWarning,0827.4,5.00,000.00,028.6,027.3,000.0,037.0,030.3,12.2,0000.0,0001.61,0003.54,0001.23
2023-10-03 23:54:00,SystemResetWarning,0827.5,5.00,000.00,028.6,027.3,000.0,037.1,030.3,12.2,0000.0,0001.69,0003.42,0001.25
2023-10-03 23:55:00,SystemResetWarning,0827.6,5.00,000.00,028.6,027.3,000.0,037.1,030.3,12.2,0000.0,0001.74,0002.82,0001.25
2023-10-03 23:56:00,SystemResetWarning,0827.6,5.01,000.00,028.7,027.3,000.0,037.1,030.3,12.3,0000.0,0001.78,0002.99,0001.26
2023-10-03 23:57:00,SystemResetWarning,0827.6,5.00,000.00,028.7,027.3,000.0,037.1,030.3,12.3,0000.0,0001.82,0003.15,0001.26
2023-10-03 23:58:00,SystemResetWarning,0827.5,5.00,000.00,028.7,027.3,000.0,037.1,030.3,12.3,0000.0,0001.82,0003.15,0001.27
2023-10-03 23:59:00,SystemResetWarning,0827.5,5.00,000.00,028.7,027.3,000.0,037.1,030.3,12.2,0000.0,0001.86,0003.20,0001.27
